Location: Freemans Gardens
(41.6414°N, 83.6077°W)
Time: 03:16:23
(UTC+00:00)

Aureole 3 Rocket - Pass Details

Date: 29 October 2020
Orbit: 399 x 1739 km, 82.5° (Epoch: 26 November)

Event Time Altitude Azimuth Distance (km) Brightness Sun altitude
Rises 23:23:58 0° 184° (S) 2,592 6.4 -10.2°
Reaches altitude 10° 23:25:48 10° 184° (S) 1,822 5.6 -10.6°
Maximum altitude 23:29:45 83° 96° (E) 682 3.2 -11.3°
Drops below altitude 10° 23:35:17 10° 9° (N) 2,534 6.0 -12.3°
Sets 23:38:13 0° 9° (N) 3,711 6.9 -12.9°
